RH
56 50 52 51 48 44 59 43 50 33 49 36 34 50 61 90 93 93 93 92 86 86 80 73 72 71 74 74 63 56 52 52 53 52 54 55 55 51 46 37 27 24 21 19
68 50 55 58 46 47 48 44 45 42 42 29 33 47 70 88 92 92 92 89 79 75 70 66 64 62 62 63 60 52 54 55 56 57 56 54 50 42 28 22 21 20 20 18
61 47 58 56 41 39 49 50 41 49 34 33 46 55 65 88 87 87 85 73 71 70 65 63 62 61 62 60 55 54 56 57 57 55 53 48 33 23 20 20 20 19 20 20
74 53 65 35 35 38 44 43 45 40 37 36 41 50 64 73 79 81 68 67 72 72 65 63 60 58 56 54 55 55 55 56 55 52 40 25 21 21 22 21 21 22 22 24
69 77 46 38 32 42 45 38 35 39 36 43 58 56 59 72 66 63 59 62 65 66 64 60 57 55 56 57 56 56 56 54 50 39 24 23 24 24 24 25 25 26 27 27
79 82 74 39 34 37 32 44 29 39 40 57 60 69 61 66 60 56 56 59 63 61 60 57 56 54 56 58 57 57 54 47 34 24 24 25 24 25 27 27 28 30 30 32
72 68 65 46 39 36 48 41 36 40 39 59 55 46 48 60 56 53 55 60 61 60 60 58 56 55 59 59 57 53 46 30 25 26 26 25 25 27 29 31 33 34 37 36
82 77 81 39 42 44 36 38 36 40 48 52 54 59 62 57 59 60 64 62 58 60 62 59 56 54 58 56 51 41 30 27 28 28 27 28 29 32 34 36 37 38 40 42
61 67 44 43 39 38 40 42 38 40 48 54 60 62 63 63 62 63 61 60 58 59 60 56 53 50 48 39 32 28 28 29 27 28 29 33 38 39 37 41 47 50 52 57
96 70 56 50 48 48 44 43 40 42 54 55 61 63 63 65 67 65 62 61 58 56 52 47 44 39 32 26 25 26 27 28 30 33 40 42 40 46 49 52 58 62 68 72
60 53 60 62 48 44 58 48 50 52 56 60 64 68 68 71 66 64 64 62 56 53 48 40 31 28 27 27 27 30 32 36 40 41 40 44 49 54 60 64 71 72 73 74
56 33 39 47 40 63 64 55 50 62 63 63 62 73 70 71 67 66 68 65 61 56 48 39 32 37 39 31 31 33 39 41 43 46 52 57 60 62 64 66 76 77 74 71
49 41 43 48 71 61 64 60 61 65 62 68 70 72 71 76 70 68 68 63 56 51 44 56 70 60 38 37 37 38 40 49 54 58 60 64 69 72 75 72 68 72 74 75
40 47 67 54 49 55 60 63 66 75 76 74 78 74 72 74 75 71 70 69 65 73 75 77 47 43 44 43 44 48 54 59 59 64 69 73 74 77 79 76 79 77 70 82
40 37 40 40 37 52 75 76 79 84 83 84 76 78 78 77 74 72 76 79 86 92 75 45 47 54 54 54 54 56 59 63 70 75 76 79 80 70 70 75 80 83 83 80
42 42 42 44 45 51 82 78 84 86 84 82 77 72 68 65 68 69 73 82 56 53 50 49 53 59 60 58 60 63 68 79 81 78 79 73 71 76 80 84 89 92 94 88
47 49 48 49 49 68 78 72 72 77 73 69 63 62 64 61 57 53 51 44 43 49 51 52 59 62 63 64 64 72 74 72 77 73 70 76 80 85 88 92 85 84 87 85
42 40 39 41 44 61 76 77 77 69 62 57 58 60 56 49 51 57 58 53 55 58 56 57 63 67 68 67 72 73 74 73 73 77 80 84 88 94 94 86 86 90 89 87
45 45 42 43 44 67 78 70 62 62 64 65 75 54 49 54 58 62 56 56 61 71 72 69 75 72 68 69 76 75 75 75 81 85 87 94 91 87 92 90 93 95 96 100
50 49 47 47 68 73 68 63 69 83 86 70 60 61 67 64 61 60 56 63 62 63 69 73 70 67 69 70 78 78 79 86 90 90 92 95 88 85 89 92 97 97 99 99
74 58 57 79 74 61 60 70 88 94 97 95 66 78 80 72 60 66 71 72 72 74 69 72 66 70 73 73 78 85 93 95 94 89 92 94 92 92 92 93 94 100 98 96
87 88 75 78 89 95 97 98 97 96 84 74 78 74 73 76 69 67 63 69 73 78 71 69 72 73 77 87 96 96 96 93 83 87 90 90 90 92 94 95 100 100 100 100
93 91 92 90 90 95 97 97 94 87 82 79 80 78 74 72 70 77 83 74 72 74 76 81 81 92 89 90 95 97 93 86 89 89 87 85 88 95 98 99 100 100 100 100
94 93 94 96 95 89 91 96 94 92 89 85 78 73 72 75 75 72 78 81 82 82 88 88 89 92 87 96 94 88 87 87 86 85 86 94 98 98 91 92 94 100 100 98
94 94 90 88 88 92 94 96 94 93 90 86 79 72 68 68 69 78 76 78 84 89 87 86 93 94 93 89 92 89 86 85 86 94 99 96 90 89 93 100 100 100 97 98
90 91 94 94 94 93 93 88 86 86 85 83 81 80 81 82 83 81 83 86 83 88 85 85 86 94 96 91 91 90 87 86 89 90 92 92 92 95 99 96 95 95 96 100
86 86 87 88 89 86 83 81 82 85 79 82 89 88 85 82 88 83 88 86 86 87 88 88 88 90 95 96 97 95 90 91 96 97 96 99 97 95 94 96 97 96 95 95
Wind_Speed
10 15 8 16 18 13 12 14 8 16 10 9 8 10 9 8 7 9 9 9 10 10 10 19 22 22 23 26 28 30 32 30 29 27 24 22 20 16 13 11 10 7 3 1
6 9 11 10 15 14 18 18 16 21 24 17 9 4 6 10 12 11 10 9 10 11 11 16 21 23 26 26 29 33 31 31 28 26 23 19 16 14 12 10 7 4 1 5
9 5 7 6 12 16 6 7 9 9 14 3 4 8 10 11 14 14 12 9 14 14 13 17 20 23 24 28 32 32 31 29 26 22 19 17 15 13 10 7 4 1 4 7
6 2 12 9 3 5 11 8 14 8 6 6 6 4 7 12 14 11 11 10 9 9 16 20 25 27 30 31 30 29 27 25 22 20 18 16 13 10 7 3 0 4 7 10
8 7 14 17 9 6 8 10 13 18 9 5 3 3 2 6 12 14 12 11 14 21 24 28 30 32 33 31 30 28 26 23 20 18 17 14 11 7 4 2 4 8 12 16
3 5 7 5 4 1 3 7 9 12 10 8 7 4 6 8 8 9 14 19 20 24 27 29 30 32 32 29 27 25 23 20 18 16 14 12 8 4 1 6 10 14 17 19
16 13 8 6 3 3 4 7 4 9 9 12 9 5 4 11 8 12 19 21 25 26 24 27 31 31 28 26 24 21 19 19 17 14 11 7 3 2 6 10 14 16 18 19
8 10 18 6 3 7 4 6 4 4 7 10 6 6 8 11 13 14 13 19 24 22 21 28 30 28 25 22 19 19 18 17 14 11 7 4 3 6 9 12 13 15 17 20
10 7 4 3 8 5 2 3 5 3 4 8 8 5 10 11 13 13 19 21 22 25 23 25 25 25 23 19 19 19 17 14 11 8 5 3 4 6 9 10 12 16 18 19
11 7 22 25 15 12 10 7 4 3 5 9 8 10 11 12 13 13 18 21 24 25 21 21 21 20 21 19 19 18 15 11 9 7 4 2 4 5 9 12 14 15 15 16
17 20 14 13 17 20 22 20 9 4 6 9 12 11 13 13 14 13 18 20 24 23 21 24 23 21 19 17 17 16 14 11 7 4 3 4 6 8 9 9 9 14 16 18
17 16 11 16 17 16 21 24 15 6 7 7 12 15 12 13 15 20 20 22 21 22 24 24 24 19 15 16 16 15 11 7 4 2 3 5 7 9 7 10 11 13 15 15
20 20 15 18 9 10 13 19 11 7 6 13 9 13 13 14 16 22 23 24 23 24 27 22 18 17 17 14 12 10 8 5 3 2 3 4 5 8 14 15 14 13 14 15
20 10 10 11 12 8 14 14 5 3 4 9 12 17 19 16 21 22 19 24 30 27 23 21 21 17 13 11 9 8 6 3 2 2 2 4 6 8 9 13 16 18 16 15
19 19 21 17 19 13 10 3 3 6 4 8 15 16 21 16 14 20 24 27 27 24 22 24 21 16 13 10 7 6 4 3 2 2 4 5 6 8 10 11 14 16 19 20
20 17 20 20 18 14 10 7 5 8 10 9 10 12 19 25 26 25 25 27 26 19 23 21 18 15 11 8 6 5 5 4 3 4 4 6 7 9 11 12 14 16 16 17
19 20 17 16 16 15 12 9 11 9 9 10 13 25 22 23 24 22 21 23 23 22 19 18 16 13 9 6 5 6 5 3 2 4 5 7 9 11 11 11 16 17 18 18
17 20 17 17 16 14 10 12 13 12 12 19 23 24 25 19 15 19 22 23 20 17 14 14 15 11 7 5 6 5 4 2 3 5 8 10 12 11 11 16 17 16 18 19
21 22 18 16 11 12 13 12 14 17 22 25 25 20 21 19 20 21 23 21 17 16 15 13 11 7 6 6 6 4 3 4 6 8 11 11 12 14 14 16 17 17 18 17
20 19 19 12 14 14 14 19 23 21 22 27 27 25 18 17 20 21 18 14 13 10 16 11 7 5 6 6 5 4 5 7 9 11 11 12 13 13 14 15 14 15 16 18
20 16 12 11 12 19 23 30 31 25 26 27 23 19 19 21 20 19 16 10 12 14 10 6 5 5 4 4 4 6 8 9 11 12 13 13 13 14 15 15 15 16 17 19
8 9 18 21 20 17 22 28 29 27 24 23 22 22 20 17 18 14 10 14 14 10 6 4 3 2 3 5 9 8 9 10 12 11 11 11 13 15 15 15 17 19 20 20
20 22 21 20 20 24 28 26 22 23 24 22 20 18 16 16 15 13 6 9 10 5 3 3 2 3 5 8 9 10 10 11 11 12 12 14 15 15 16 18 20 22 22 22
21 26 29 34 33 28 17 22 26 23 25 23 22 20 20 17 14 12 12 8 4 2 1 2 3 5 7 7 8 9 9 10 10 13 15 15 16 16 20 22 23 22 23 23
31 31 31 28 18 14 23 23 24 22 22 21 19 16 14 9 8 9 6 3 2 0 2 2 4 4 7 7 7 9 10 11 13 15 16 16 19 19 23 22 22 23 23 24
26 22 25 25 19 18 17 16 16 14 15 15 16 13 12 11 10 7 4 2 2 2 4 5 5 6 7 7 7 9 12 14 15 16 17 19 22 24 24 25 24 24 24 25
25 25 22 22 21 19 18 17 16 13 14 14 14 10 9 8 6 5 5 5 5 5 5 5 5 6 7 10 11 14 15 15 15 17 20 22 24 23 22 23 24 25 26 26
Wind_Direction
253 262 261 262 260 244 211 226 219 276 236 257 239 216 204 175 158 151 157 158 158 153 148 148 143 142 143 150 157 158 150 151 151 145 148 146 147 148 146 146 142 140 131 69
265 253 242 259 263 248 242 250 248 258 273 266 236 205 166 176 168 169 166 158 159 157 150 148 144 144 145 148 152 158 152 149 147 152 151 149 148 148 147 145 146 146 49 350
269 285 309 272 243 236 226 207 212 217 247 223 216 212 194 176 179 175 168 163 157 159 155 148 145 146 145 150 156 156 151 149 153 152 151 151 151 152 151 147 139 48 344 332
265 351 269 246 223 213 223 243 210 255 245 232 256 241 175 177 171 172 163 156 148 139 139 143 148 151 155 155 156 153 152 155 155 156 154 153 154 153 151 147 22 325 324 326
238 222 277 291 278 204 173 267 216 228 213 197 106 47 272 183 176 170 166 161 157 154 151 154 155 156 156 157 158 156 157 159 160 160 157 158 158 158 165 224 303 318 322 327
177 213 229 237 296 124 165 269 227 196 181 158 141 185 235 175 155 143 147 147 143 147 149 154 158 159 158 158 159 161 163 162 162 162 161 162 166 176 259 317 321 321 319 317
230 239 274 244 225 204 173 234 212 185 180 158 188 189 165 142 137 149 146 141 143 147 149 156 161 162 156 160 164 165 163 161 161 164 165 167 184 305 323 324 319 315 314 316
219 227 254 230 116 201 253 312 288 193 171 178 133 137 139 143 137 139 133 139 142 138 141 156 163 163 157 164 164 162 161 162 166 169 170 192 271 310 317 318 316 319 326 328
207 212 281 299 241 268 244 263 297 238 189 160 139 154 143 142 137 140 141 140 144 138 136 153 162 167 160 160 162 163 166 169 173 181 198 247 286 305 312 322 330 334 334 332
338 337 325 311 312 335 322 273 274 264 176 158 147 149 141 141 138 141 142 140 139 135 135 141 160 167 164 160 165 170 172 176 184 198 214 237 298 324 328 333 332 330 327 321
269 276 300 290 313 324 319 305 271 178 182 160 145 153 150 146 140 140 136 136 141 139 139 145 152 153 157 163 176 175 175 176 180 190 261 303 319 329 328 323 321 316 314 314
264 270 268 273 297 314 320 319 269 192 154 158 158 149 150 143 143 141 136 135 131 134 138 145 145 144 157 171 175 176 169 171 186 240 295 314 313 307 303 313 316 313 309 307
253 264 263 266 284 308 316 314 287 249 187 150 147 145 146 137 139 136 133 132 133 133 138 143 144 160 166 166 171 169 171 174 194 256 288 300 313 320 318 319 320 314 312 309
248 257 263 261 273 276 299 294 256 53 102 132 130 139 135 130 128 127 129 127 131 134 137 150 163 154 159 165 168 157 162 185 226 259 278 291 297 298 301 310 315 316 319 311
252 257 264 274 287 282 271 218 183 124 128 127 137 137 134 132 128 127 127 132 137 140 153 164 157 150 155 160 162 164 169 175 191 226 257 276 282 295 298 302 304 302 310 316
245 244 255 251 251 249 207 167 184 160 149 139 131 129 131 125 123 124 130 141 146 149 154 156 156 157 162 165 163 162 166 167 202 247 263 279 287 294 298 300 302 299 297 300
255 250 235 249 250 228 207 185 196 183 154 146 135 126 121 120 121 127 136 152 152 150 153 159 159 160 162 168 178 173 177 199 231 268 280 289 291 289 294 291 303 304 304 311
239 244 240 233 233 232 211 190 162 162 153 139 130 127 124 137 131 126 130 138 135 136 148 156 157 159 166 173 174 183 196 237 269 288 296 294 292 291 288 300 302 295 303 312
241 239 234 229 230 202 181 169 158 148 139 136 132 127 118 121 126 130 138 138 139 136 149 152 158 171 180 180 184 200 228 260 286 292 296 290 287 295 295 299 299 303 304 301
244 231 232 225 177 161 149 140 127 123 131 132 122 118 115 119 129 134 142 135 153 160 157 159 172 183 180 185 195 235 255 278 285 293 293 286 292 294 299 300 298 302 302 300
247 215 208 144 126 134 136 134 131 128 125 125 135 133 129 129 137 138 128 123 140 144 152 165 172 179 201 219 227 255 269 273 284 290 288 287 292 298 302 307 308 300 301 299
209 155 118 114 110 105 112 116 113 118 123 117 114 119 119 118 125 123 132 144 148 154 158 166 191 242 241 251 269 261 273 282 288 283 282 286 292 297 301 307 300 297 299 297
86 96 99 102 103 102 96 97 108 111 105 108 112 117 118 127 133 126 110 139 148 142 161 203 252 274 271 276 273 279 284 284 283 288 292 296 298 300 301 303 299 299 299 298
78 81 85 88 90 89 87 85 85 87 95 99 107 119 125 116 100 101 115 127 136 134 195 251 284 286 290 278 287 289 288 289 292 298 298 297 297 300 304 305 305 302 297 300
65 70 73 75 76 78 83 88 87 86 91 92 98 99 98 100 121 118 109 115 111 69 288 291 313 298 281 285 281 290 297 301 302 299 299 299 301 301 302 302 296 298 302 296
67 69 70 71 76 80 84 89 89 89 94 89 87 88 88 88 88 91 91 67 24 2 333 323 316 312 299 297 298 300 301 301 298 296 294 294 297 301 299 300 301 303 304 301
66 69 70 68 62 69 76 82 83 78 89 97 89 84 85 84 84 76 50 33 14 357 346 336 326 324 321 313 302 297 297 293 291 291 293 293 295 297 300 302 302 302 304 304